Anna Noli — IZEL — position and weather

sailwx.info

Track history (hours):
 
Tides and Currents Weather Stations Pressure Air Temp Water Temp Dewpoint Dewpoint Depression Visibility Wind Speed Wind Dir Waves Ship Positions

Anna Noli

Last reported at 2014-Jul-29 04:20 UTC. Time now 2014-Jul-29 04:48 UTC.
Position N 44°18' E 008°29'.

Length 32 m.

Type: Tug. MMSI: 247046500.

Date/timePositionNaut miles runAvg speedWind from/ knotsBaromVisibWave heightAir tempDewpointWater temp
2014-Jul-29 04:20N 44°18' E 008°29'1 0.9
2014-Jul-29 03:33N 44°19' E 008°30'1 0.7
2014-Jul-29 02:31N 44°18' E 008°29'0 0.0
2014-Jul-29 01:31N 44°18' E 008°29'0 0.0
2014-Jul-29 00:31N 44°18' E 008°29'0 0.0
2014-Jul-28 23:25N 44°18' E 008°29'0 0.0
2014-Jul-28 22:28N 44°18' E 008°29'0 0.0
2014-Jul-28 18:16N 44°18' E 008°29'0 0.0
2014-Jul-28 12:24N 44°19' E 008°29'0 0.3
2014-Jul-28 11:19N 44°18' E 008°29'0 0.0
2014-Jul-28 09:16N 44°18' E 008°29'0 0.0
2014-Jul-28 07:31N 44°18' E 008°29'0 0.0
2014-Jul-28 06:19N 44°18' E 008°29'0 0.0
2014-Jul-28 04:04N 44°18' E 008°29'0 0.0
2014-Jul-28 03:31N 44°18' E 008°29'0 0.0
2014-Jul-28 02:28N 44°18' E 008°29'0 0.0
2014-Jul-28 01:16N 44°18' E 008°29'0 0.0
2014-Jul-28 00:28N 44°18' E 008°29'0 0.0
2014-Jul-27 23:31N 44°18' E 008°29'0 0.0
2014-Jul-27 22:25N 44°18' E 008°29'0 0.0
2014-Jul-27 21:28N 44°18' E 008°29'0 0.0
2014-Jul-27 20:28N 44°18' E 008°29'0 0.0
2014-Jul-27 19:28N 44°18' E 008°29'0 0.0
2014-Jul-27 18:28N 44°18' E 008°29'2 1.8
2014-Jul-27 17:07N 44°16' E 008°28'0 0.2
2014-Jul-27 16:12N 44°17' E 008°28'2 3.2
2014-Jul-27 15:30N 44°18' E 008°29'0 0.0
2014-Jul-27 14:30N 44°18' E 008°29'0 0.0
2014-Jul-27 13:30N 44°18' E 008°29'0 0.0
2014-Jul-27 12:30N 44°18' E 008°29'0 0.0
2014-Jul-27 11:27N 44°18' E 008°29'0 0.0
2014-Jul-27 09:06N 44°18' E 008°29'0 0.0
2014-Jul-27 08:18N 44°18' E 008°29'0 0.0
2014-Jul-27 07:33N 44°18' E 008°29'1 0.9
2014-Jul-27 06:15N 44°18' E 008°31'1 0.6
2014-Jul-27 04:27N 44°18' E 008°29'0 0.0
2014-Jul-27 03:24N 44°18' E 008°29'0 0.0
2014-Jul-27 02:30N 44°18' E 008°29'0 0.0
2014-Jul-27 01:30N 44°18' E 008°29'0 0.0
2014-Jul-27 00:33N 44°18' E 008°29'0 0.0
2014-Jul-26 23:33N 44°18' E 008°29'0 0.0
2014-Jul-26 19:33N 44°18' E 008°29'0 0.0
2014-Jul-26 18:27N 44°18' E 008°29'0 0.0
2014-Jul-26 16:03N 44°18' E 008°29'0 0.0
2014-Jul-26 15:30N 44°18' E 008°29'0 0.0
2014-Jul-26 14:33N 44°18' E 008°29'0 0.0
2014-Jul-26 11:27N 44°18' E 008°29'3 0.8
2014-Jul-26 08:18N 44°16' E 008°28'1 0.6
2014-Jul-26 07:20N 44°16' E 008°27'3 1.0
2014-Jul-26 04:21N 44°18' E 008°30'0 0.5
2014-Jul-26 03:20N 44°18' E 008°29'0 0.0
2014-Jul-26 02:32N 44°18' E 008°29'0 0.0
2014-Jul-26 01:32N 44°18' E 008°29'0 0.0
2014-Jul-26 00:32N 44°18' E 008°29'0 0.0
2014-Jul-25 23:32N 44°18' E 008°29'0 0.0
2014-Jul-25 21:08N 44°18' E 008°29'0 0.0
2014-Jul-25 19:32N 44°18' E 008°29'0 0.0
2014-Jul-25 15:32N 44°18' E 008°29'1 0.1
2014-Jul-25 10:27N 44°19' E 008°30'1 0.2
2014-Jul-25 07:33N 44°18' E 008°29'0 0.0
2014-Jul-25 04:24N 44°18' E 008°29'0 0.0
2014-Jul-25 03:09N 44°18' E 008°29'0 0.0
2014-Jul-25 02:33N 44°18' E 008°29'0 0.0
2014-Jul-25 01:33N 44°18' E 008°29'0 0.0
2014-Jul-25 00:33N 44°18' E 008°29'0 0.0
2014-Jul-24 23:30N 44°18' E 008°29'0 0.0
2014-Jul-24 19:33N 44°18' E 008°29'0 0.0
2014-Jul-24 16:06N 44°18' E 008°29'0 0.0
2014-Jul-24 15:24N 44°18' E 008°29'0 0.0
2014-Jul-24 12:15N 44°18' E 008°29'1 0.9
2014-Jul-24 11:30N 44°19' E 008°30'0 0.3
2014-Jul-24 10:34N 44°19' E 008°30'1 0.6
2014-Jul-24 09:33N 44°18' E 008°30'0 0.4
2014-Jul-24 08:24N 44°18' E 008°29'0 0.0
2014-Jul-24 07:27N 44°18' E 008°29'0 0.0
2014-Jul-24 04:12N 44°18' E 008°29'0 0.0
2014-Jul-24 03:30N 44°18' E 008°29'0 0.0
2014-Jul-24 02:33N 44°18' E 008°29'0 0.0
2014-Jul-24 01:30N 44°18' E 008°29'0 0.0
2014-Jul-24 00:33N 44°18' E 008°29'0 0.0
2014-Jul-23 23:33N 44°18' E 008°29'0 0.0
2014-Jul-23 22:24N 44°18' E 008°29'0 0.0
2014-Jul-23 20:18N 44°18' E 008°29'0 0.0
2014-Jul-23 19:30N 44°18' E 008°29'0 0.0
2014-Jul-23 18:24N 44°18' E 008°29'0 0.0
2014-Jul-23 17:24N 44°18' E 008°29'0 0.0
2014-Jul-23 16:15N 44°18' E 008°29'0 0.0
2014-Jul-23 15:33N 44°18' E 008°29'0 0.0
2014-Jul-23 14:30N 44°18' E 008°29'0 0.0
2014-Jul-23 13:33N 44°18' E 008°29'0 0.0
2014-Jul-23 11:24N 44°18' E 008°29'0 0.0
2014-Jul-23 09:06N 44°18' E 008°29'0 0.0
2014-Jul-23 08:30N 44°18' E 008°29'0 0.0
2014-Jul-23 07:30N 44°18' E 008°29'0 0.0
2014-Jul-23 06:30N 44°18' E 008°29'0 0.0
2014-Jul-23 04:30N 44°18' E 008°29'0 0.0
2014-Jul-23 03:24N 44°18' E 008°29'0 0.0
2014-Jul-23 02:21N 44°18' E 008°29'0 0.0
2014-Jul-23 01:18N 44°18' E 008°29'0 0.0
2014-Jul-23 00:30N 44°18' E 008°29'0 0.0
2014-Jul-22 23:33N 44°18' E 008°29'0 0.0
2014-Jul-22 22:30N 44°18' E 008°29'0 0.0
2014-Jul-22 21:18N 44°18' E 008°29'0 0.0
2014-Jul-22 19:30N 44°18' E 008°29'0 0.0
2014-Jul-22 18:30N 44°18' E 008°29'0 0.0
2014-Jul-22 17:30N 44°18' E 008°29'0 0.0
2014-Jul-22 16:30N 44°18' E 008°29'0 0.0
2014-Jul-22 15:30N 44°18' E 008°29'0 0.0
2014-Jul-22 14:33N 44°18' E 008°29'0 0.0
2014-Jul-22 13:33N 44°18' E 008°29'0 0.0
2014-Jul-22 12:30N 44°18' E 008°29'0 0.0
2014-Jul-22 11:30N 44°18' E 008°29'0 0.0
2014-Jul-22 10:33N 44°18' E 008°29'0 0.0
2014-Jul-22 08:24N 44°18' E 008°29'0 0.0
2014-Jul-22 07:30N 44°18' E 008°29'0 0.0
2014-Jul-22 06:30N 44°18' E 008°29'0 0.0
2014-Jul-22 04:18N 44°18' E 008°29'0 0.0
2014-Jul-22 03:27N 44°18' E 008°29'0 0.0
2014-Jul-22 02:33N 44°18' E 008°29'0 0.0
2014-Jul-22 01:30N 44°18' E 008°29'0 0.0
2014-Jul-22 00:18N 44°18' E 008°29'0 0.0
2014-Jul-21 23:33N 44°18' E 008°29'0 0.0
2014-Jul-21 22:21N 44°18' E 008°29'0 0.0
2014-Jul-21 20:24N 44°18' E 008°29'0 0.0
2014-Jul-21 20:09N 44°18' E 008°29'0 0.0
2014-Jul-21 19:18N 44°18' E 008°29'0 0.0
2014-Jul-21 18:30N 44°18' E 008°29'1 0.2
2014-Jul-21 15:33N 44°19' E 008°30'3 2.7
2014-Jul-21 14:32N 44°17' E 008°28'0 0.2
2014-Jul-21 13:32N 44°16' E 008°28'2 2.0
2014-Jul-21 12:19N 44°18' E 008°30'1 0.7
2014-Jul-21 11:25N 44°18' E 008°29'0 0.0
2014-Jul-21 06:16N 44°18' E 008°29'0 0.0
2014-Jul-21 04:07N 44°18' E 008°29'0 0.0
2014-Jul-21 03:31N 44°18' E 008°29'0 0.0
2014-Jul-21 02:25N 44°18' E 008°29'0 0.0
2014-Jul-21 01:31N 44°18' E 008°29'0 0.0
2014-Jul-21 00:28N 44°18' E 008°29'0 0.0
2014-Jul-20 23:31N 44°18' E 008°29'0 0.0
2014-Jul-20 19:28N 44°18' E 008°29'0 0.0
2014-Jul-20 18:28N 44°18' E 008°29'0 0.0
2014-Jul-20 16:16N 44°18' E 008°29'0 0.0
2014-Jul-20 15:31N 44°18' E 008°29'0 0.0
2014-Jul-20 11:22N 44°18' E 008°29'0 0.0
2014-Jul-20 09:05N 44°19' E 008°29'2 3.5
2014-Jul-20 08:26N 44°17' E 008°28'0 0.2
2014-Jul-20 07:33N 44°16' E 008°28'1 0.5
2014-Jul-20 06:33N 44°16' E 008°28'3 2.5
2014-Jul-20 05:26N 44°18' E 008°29'0 0.0
2014-Jul-20 04:14N 44°18' E 008°29'0 0.0
2014-Jul-20 03:23N 44°18' E 008°29'0 0.0
2014-Jul-19 23:32N 44°18' E 008°29'0 0.0
2014-Jul-19 20:26N 44°18' E 008°29'0 0.0
2014-Jul-19 19:26N 44°18' E 008°29'0 0.0
2014-Jul-19 18:32N 44°18' E 008°29'0 0.0
2014-Jul-19 17:26N 44°18' E 008°29'0 0.0
2014-Jul-19 16:32N 44°18' E 008°29'0 0.0
2014-Jul-19 15:32N 44°18' E 008°29'0 0.0
2014-Jul-19 14:32N 44°18' E 008°29'0 0.0
2014-Jul-19 13:26N 44°18' E 008°29'0 0.0
2014-Jul-19 12:32N 44°18' E 008°29'3 2.8
2014-Jul-19 11:31N 44°16' E 008°27'3 3.5
2014-Jul-19 10:33N 44°19' E 008°30'1 0.5
2014-Jul-19 09:09N 44°18' E 008°29'0 0.0
2014-Jul-19 08:06N 44°18' E 008°29'0 0.0
2014-Jul-19 07:33N 44°18' E 008°29'0 0.0
2014-Jul-19 06:30N 44°18' E 008°29'0 0.0
2014-Jul-19 05:33N 44°18' E 008°29'0 0.0
2014-Jul-19 04:27N 44°18' E 008°29'  
Track history (hours):
 
Tides and Currents Weather Stations Pressure Air Temp Water Temp Dewpoint Dewpoint Depression Visibility Wind Speed Wind Dir Waves Ship Positions

Anna Noli

Last reported at 2014-Jul-29 04:20 UTC. Time now 2014-Jul-29 04:48 UTC.
Position N 44°18' E 008°29'.

Length 32 m.

Type: Tug. MMSI: 247046500.

Date/timePositionNaut miles runAvg speedWind from/ knotsBaromVisibWave heightAir tempDewpointWater temp
2014-Jul-29 04:20N 44°18' E 008°29'1 0.9
2014-Jul-29 03:33N 44°19' E 008°30'1 0.7
2014-Jul-29 02:31N 44°18' E 008°29'0 0.0
2014-Jul-29 01:31N 44°18' E 008°29'0 0.0
2014-Jul-29 00:31N 44°18' E 008°29'0 0.0
2014-Jul-28 23:25N 44°18' E 008°29'0 0.0
2014-Jul-28 22:28N 44°18' E 008°29'0 0.0
2014-Jul-28 18:16N 44°18' E 008°29'0 0.0
2014-Jul-28 12:24N 44°19' E 008°29'0 0.3
2014-Jul-28 11:19N 44°18' E 008°29'0 0.0
2014-Jul-28 09:16N 44°18' E 008°29'0 0.0
2014-Jul-28 07:31N 44°18' E 008°29'0 0.0
2014-Jul-28 06:19N 44°18' E 008°29'0 0.0
2014-Jul-28 04:04N 44°18' E 008°29'0 0.0
2014-Jul-28 03:31N 44°18' E 008°29'0 0.0
2014-Jul-28 02:28N 44°18' E 008°29'0 0.0
2014-Jul-28 01:16N 44°18' E 008°29'0 0.0
2014-Jul-28 00:28N 44°18' E 008°29'0 0.0
2014-Jul-27 23:31N 44°18' E 008°29'0 0.0
2014-Jul-27 22:25N 44°18' E 008°29'0 0.0
2014-Jul-27 21:28N 44°18' E 008°29'0 0.0
2014-Jul-27 20:28N 44°18' E 008°29'0 0.0
2014-Jul-27 19:28N 44°18' E 008°29'0 0.0
2014-Jul-27 18:28N 44°18' E 008°29'2 1.8
2014-Jul-27 17:07N 44°16' E 008°28'0 0.2
2014-Jul-27 16:12N 44°17' E 008°28'2 3.2
2014-Jul-27 15:30N 44°18' E 008°29'0 0.0
2014-Jul-27 14:30N 44°18' E 008°29'0 0.0
2014-Jul-27 13:30N 44°18' E 008°29'0 0.0
2014-Jul-27 12:30N 44°18' E 008°29'0 0.0
2014-Jul-27 11:27N 44°18' E 008°29'0 0.0
2014-Jul-27 09:06N 44°18' E 008°29'0 0.0
2014-Jul-27 08:18N 44°18' E 008°29'0 0.0
2014-Jul-27 07:33N 44°18' E 008°29'1 0.9
2014-Jul-27 06:15N 44°18' E 008°31'1 0.6
2014-Jul-27 04:27N 44°18' E 008°29'0 0.0
2014-Jul-27 03:24N 44°18' E 008°29'0 0.0
2014-Jul-27 02:30N 44°18' E 008°29'0 0.0
2014-Jul-27 01:30N 44°18' E 008°29'0 0.0
2014-Jul-27 00:33N 44°18' E 008°29'0 0.0
2014-Jul-26 23:33N 44°18' E 008°29'0 0.0
2014-Jul-26 19:33N 44°18' E 008°29'0 0.0
2014-Jul-26 18:27N 44°18' E 008°29'0 0.0
2014-Jul-26 16:03N 44°18' E 008°29'0 0.0
2014-Jul-26 15:30N 44°18' E 008°29'0 0.0
2014-Jul-26 14:33N 44°18' E 008°29'0 0.0
2014-Jul-26 11:27N 44°18' E 008°29'3 0.8
2014-Jul-26 08:18N 44°16' E 008°28'1 0.6
2014-Jul-26 07:20N 44°16' E 008°27'3 1.0
2014-Jul-26 04:21N 44°18' E 008°30'0 0.5
2014-Jul-26 03:20N 44°18' E 008°29'0 0.0
2014-Jul-26 02:32N 44°18' E 008°29'0 0.0
2014-Jul-26 01:32N 44°18' E 008°29'0 0.0
2014-Jul-26 00:32N 44°18' E 008°29'0 0.0
2014-Jul-25 23:32N 44°18' E 008°29'0 0.0
2014-Jul-25 21:08N 44°18' E 008°29'0 0.0
2014-Jul-25 19:32N 44°18' E 008°29'0 0.0
2014-Jul-25 15:32N 44°18' E 008°29'1 0.1
2014-Jul-25 10:27N 44°19' E 008°30'1 0.2
2014-Jul-25 07:33N 44°18' E 008°29'0 0.0
2014-Jul-25 04:24N 44°18' E 008°29'0 0.0
2014-Jul-25 03:09N 44°18' E 008°29'0 0.0
2014-Jul-25 02:33N 44°18' E 008°29'0 0.0
2014-Jul-25 01:33N 44°18' E 008°29'0 0.0
2014-Jul-25 00:33N 44°18' E 008°29'0 0.0
2014-Jul-24 23:30N 44°18' E 008°29'0 0.0
2014-Jul-24 19:33N 44°18' E 008°29'0 0.0
2014-Jul-24 16:06N 44°18' E 008°29'0 0.0
2014-Jul-24 15:24N 44°18' E 008°29'0 0.0
2014-Jul-24 12:15N 44°18' E 008°29'1 0.9
2014-Jul-24 11:30N 44°19' E 008°30'0 0.3
2014-Jul-24 10:34N 44°19' E 008°30'1 0.6
2014-Jul-24 09:33N 44°18' E 008°30'0 0.4
2014-Jul-24 08:24N 44°18' E 008°29'0 0.0
2014-Jul-24 07:27N 44°18' E 008°29'0 0.0
2014-Jul-24 04:12N 44°18' E 008°29'0 0.0
2014-Jul-24 03:30N 44°18' E 008°29'0 0.0
2014-Jul-24 02:33N 44°18' E 008°29'0 0.0
2014-Jul-24 01:30N 44°18' E 008°29'0 0.0
2014-Jul-24 00:33N 44°18' E 008°29'0 0.0
2014-Jul-23 23:33N 44°18' E 008°29'0 0.0
2014-Jul-23 22:24N 44°18' E 008°29'0 0.0
2014-Jul-23 20:18N 44°18' E 008°29'0 0.0
2014-Jul-23 19:30N 44°18' E 008°29'0 0.0
2014-Jul-23 18:24N 44°18' E 008°29'0 0.0
2014-Jul-23 17:24N 44°18' E 008°29'0 0.0
2014-Jul-23 16:15N 44°18' E 008°29'0 0.0
2014-Jul-23 15:33N 44°18' E 008°29'0 0.0
2014-Jul-23 14:30N 44°18' E 008°29'0 0.0
2014-Jul-23 13:33N 44°18' E 008°29'0 0.0
2014-Jul-23 11:24N 44°18' E 008°29'0 0.0
2014-Jul-23 09:06N 44°18' E 008°29'0 0.0
2014-Jul-23 08:30N 44°18' E 008°29'0 0.0
2014-Jul-23 07:30N 44°18' E 008°29'0 0.0
2014-Jul-23 06:30N 44°18' E 008°29'0 0.0
2014-Jul-23 04:30N 44°18' E 008°29'0 0.0
2014-Jul-23 03:24N 44°18' E 008°29'0 0.0
2014-Jul-23 02:21N 44°18' E 008°29'0 0.0
2014-Jul-23 01:18N 44°18' E 008°29'0 0.0
2014-Jul-23 00:30N 44°18' E 008°29'0 0.0
2014-Jul-22 23:33N 44°18' E 008°29'0 0.0
2014-Jul-22 22:30N 44°18' E 008°29'0 0.0
2014-Jul-22 21:18N 44°18' E 008°29'0 0.0
2014-Jul-22 19:30N 44°18' E 008°29'0 0.0
2014-Jul-22 18:30N 44°18' E 008°29'0 0.0
2014-Jul-22 17:30N 44°18' E 008°29'0 0.0
2014-Jul-22 16:30N 44°18' E 008°29'0 0.0
2014-Jul-22 15:30N 44°18' E 008°29'0 0.0
2014-Jul-22 14:33N 44°18' E 008°29'0 0.0
2014-Jul-22 13:33N 44°18' E 008°29'0 0.0
2014-Jul-22 12:30N 44°18' E 008°29'0 0.0
2014-Jul-22 11:30N 44°18' E 008°29'0 0.0
2014-Jul-22 10:33N 44°18' E 008°29'0 0.0
2014-Jul-22 08:24N 44°18' E 008°29'0 0.0
2014-Jul-22 07:30N 44°18' E 008°29'0 0.0
2014-Jul-22 06:30N 44°18' E 008°29'0 0.0
2014-Jul-22 04:18N 44°18' E 008°29'0 0.0
2014-Jul-22 03:27N 44°18' E 008°29'0 0.0
2014-Jul-22 02:33N 44°18' E 008°29'0 0.0
2014-Jul-22 01:30N 44°18' E 008°29'0 0.0
2014-Jul-22 00:18N 44°18' E 008°29'0 0.0
2014-Jul-21 23:33N 44°18' E 008°29'0 0.0
2014-Jul-21 22:21N 44°18' E 008°29'0 0.0
2014-Jul-21 20:24N 44°18' E 008°29'0 0.0
2014-Jul-21 20:09N 44°18' E 008°29'0 0.0
2014-Jul-21 19:18N 44°18' E 008°29'0 0.0
2014-Jul-21 18:30N 44°18' E 008°29'1 0.2
2014-Jul-21 15:33N 44°19' E 008°30'3 2.7
2014-Jul-21 14:32N 44°17' E 008°28'0 0.2
2014-Jul-21 13:32N 44°16' E 008°28'2 2.0
2014-Jul-21 12:19N 44°18' E 008°30'1 0.7
2014-Jul-21 11:25N 44°18' E 008°29'0 0.0
2014-Jul-21 06:16N 44°18' E 008°29'0 0.0
2014-Jul-21 04:07N 44°18' E 008°29'0 0.0
2014-Jul-21 03:31N 44°18' E 008°29'0 0.0
2014-Jul-21 02:25N 44°18' E 008°29'0 0.0
2014-Jul-21 01:31N 44°18' E 008°29'0 0.0
2014-Jul-21 00:28N 44°18' E 008°29'0 0.0
2014-Jul-20 23:31N 44°18' E 008°29'0 0.0
2014-Jul-20 19:28N 44°18' E 008°29'0 0.0
2014-Jul-20 18:28N 44°18' E 008°29'0 0.0
2014-Jul-20 16:16N 44°18' E 008°29'0 0.0
2014-Jul-20 15:31N 44°18' E 008°29'0 0.0
2014-Jul-20 11:22N 44°18' E 008°29'0 0.0
2014-Jul-20 09:05N 44°19' E 008°29'2 3.5
2014-Jul-20 08:26N 44°17' E 008°28'0 0.2
2014-Jul-20 07:33N 44°16' E 008°28'1 0.5
2014-Jul-20 06:33N 44°16' E 008°28'3 2.5
2014-Jul-20 05:26N 44°18' E 008°29'0 0.0
2014-Jul-20 04:14N 44°18' E 008°29'0 0.0
2014-Jul-20 03:23N 44°18' E 008°29'0 0.0
2014-Jul-19 23:32N 44°18' E 008°29'0 0.0
2014-Jul-19 20:26N 44°18' E 008°29'0 0.0
2014-Jul-19 19:26N 44°18' E 008°29'0 0.0
2014-Jul-19 18:32N 44°18' E 008°29'0 0.0
2014-Jul-19 17:26N 44°18' E 008°29'0 0.0
2014-Jul-19 16:32N 44°18' E 008°29'0 0.0
2014-Jul-19 15:32N 44°18' E 008°29'0 0.0
2014-Jul-19 14:32N 44°18' E 008°29'0 0.0
2014-Jul-19 13:26N 44°18' E 008°29'0 0.0
2014-Jul-19 12:32N 44°18' E 008°29'3 2.8
2014-Jul-19 11:31N 44°16' E 008°27'3 3.5
2014-Jul-19 10:33N 44°19' E 008°30'1 0.5
2014-Jul-19 09:09N 44°18' E 008°29'0 0.0
2014-Jul-19 08:06N 44°18' E 008°29'0 0.0
2014-Jul-19 07:33N 44°18' E 008°29'0 0.0
2014-Jul-19 06:30N 44°18' E 008°29'0 0.0
2014-Jul-19 05:33N 44°18' E 008°29'0 0.0
2014-Jul-19 04:27N 44°18' E 008°29'  

Dump ship's entire track history